| time (UTC) | temp F | wind direction | speed MPH | gust MPH | rain 1hr in | rain 24hr in | rain mn in | humidity % | barometer mb |
| 20260831010035 | 71 | 5 | 3.0 | 9.0 | 0.00 | 0.00 | 0.00 | 55 | 1004.1 |
| 20260831005531 | 71 | 34 | 3.0 | 12.0 | 0.00 | 0.00 | 0.00 | 54 | 1004.2 |
| 20260831005041 | 72 | 26 | 4.0 | 12.0 | 0.00 | 0.00 | 0.00 | 54 | 1004.2 |
| 20260831004509 | 72 | 51 | 3.0 | 9.0 | 0.00 | 0.00 | 0.00 | 54 | 1004.2 |
| 20260831004023 | 72 | 45 | 2.0 | 10.0 | 0.00 | 0.00 | 0.00 | 53 | 1004.2 |
| 20260831003531 | 72 | 350 | 5.0 | 10.0 | 0.00 | 0.00 | 0.00 | 53 | 1004.2 |
| 20260831003106 | 72 | 360 | 4.0 | 9.0 | 0.00 | 0.00 | 0.00 | 53 | 1004.3 |
| 20260831002504 | 72 | 111 | 3.0 | 9.0 | 0.00 | 0.00 | 0.00 | 53 | 1004.4 |
| 20260831002018 | 72 | 39 | 1.0 | 10.0 | 0.00 | 0.00 | 0.00 | 54 | 1004.4 |
| 20260831001540 | 72 | 13 | 4.0 | 10.0 | 0.00 | 0.00 | 0.00 | 52 | 1004.4 |
| 20260831001041 | 73 | 78 | 2.0 | 12.0 | 0.00 | 0.00 | 0.00 | 52 | 1004.4 |
| 20260831000548 | 72 | 28 | 5.0 | 12.0 | 0.00 | 0.00 | 0.00 | 53 | 1004.6 |
| 20260831000025 | 73 | 159 | 2.0 | 10.0 | 0.00 | 0.00 | 0.00 | 52 | 1004.5 |
| 20260830235537 | 73 | 355 | 5.0 | 10.0 | 0.00 | 0.00 | 0.00 | 52 | 1004.6 |
| 20260830235053 | 72 | 86 | 4.0 | 10.0 | 0.00 | 0.00 | 0.00 | 52 | 1004.5 |
| 20260830234506 | 72 | 309 | 3.0 | 7.0 | 0.00 | 0.00 | 0.00 | 54 | 1004.6 |
| 20260830234018 | 73 | 32 | 1.0 | 9.0 | 0.00 | 0.00 | 0.00 | 52 | 1004.6 |
| 20260830233527 | 73 | 55 | 4.0 | 9.0 | 0.00 | 0.00 | 0.00 | 53 | 1004.8 |
| 20260830233058 | 73 | 59 | 4.0 | 8.0 | 0.00 | 0.00 | 0.00 | 53 | 1004.8 |
| 20260830232505 | 72 | 341 | 2.0 | 10.0 | 0.00 | 0.00 | 0.00 | 53 | 1004.9 |
| 20260830232023 | 73 | 87 | 3.0 | 10.0 | 0.00 | 0.00 | 0.00 | 51 | 1004.9 |
| 20260830231538 | 73 | 47 | 1.0 | 7.0 | 0.00 | 0.00 | 0.00 | 52 | 1005.0 |
| 20260830231048 | 73 | 25 | 2.0 | 10.0 | 0.00 | 0.00 | 0.00 | 51 | 1005.0 |
| 20260830230556 | 73 | 63 | 2.0 | 9.0 | 0.00 | 0.00 | 0.00 | 53 | 1005.1 |
| 20260830230037 | 72 | 347 | 4.0 | 11.0 | 0.00 | 0.00 | 0.00 | 51 | 1005.1 |
| 20260830225534 | 73 | 298 | 3.0 | 11.0 | 0.00 | 0.00 | 0.00 | 50 | 1005.3 |
| 20260830225046 | 72 | 29 | 1.0 | 8.0 | 0.00 | 0.00 | 0.00 | 50 | 1005.3 |
| 20260830224529 | 73 | 85 | 2.0 | 5.0 | 0.00 | 0.00 | 0.00 | 51 | 1005.6 |
| 20260830224025 | 72 | 274 | 2.0 | 5.0 | 0.00 | 0.00 | 0.00 | 52 | 1005.6 |
| 20260830223531 | 73 | 269 | 1.0 | 11.0 | 0.00 | 0.00 | 0.00 | 51 | 1005.7 |
| 20260830223059 | 73 | 261 | 5.0 | 11.0 | 0.00 | 0.00 | 0.00 | 52 | 1005.9 |
| 20260830222504 | 73 | 99 | 3.0 | 7.0 | 0.00 | 0.00 | 0.00 | 50 | 1005.9 |
| 20260830222016 | 73 | 71 | 2.0 | 7.0 | 0.00 | 0.00 | 0.00 | 50 | 1006.0 |
| 20260830221534 | 72 | 44 | 2.0 | 8.0 | 0.00 | 0.00 | 0.00 | 52 | 1006.0 |
| 20260830221040 | 72 | 280 | 3.0 | 9.0 | 0.00 | 0.00 | 0.00 | 52 | 1006.1 |
| 20260830220548 | 72 | 5 | 2.0 | 6.0 | 0.00 | 0.00 | 0.00 | 50 | 1006.2 |
| 20260830220025 | 72 | 273 | 1.0 | 8.0 | 0.00 | 0.00 | 0.00 | 52 | 1006.2 |
| 20260830215527 | 72 | 313 | 4.0 | 8.0 | 0.00 | 0.00 | 0.00 | 51 | 1006.3 |
| 20260830215038 | 72 | 68 | 3.0 | 7.0 | 0.00 | 0.00 | 0.00 | 52 | 1006.4 |
| 20260830214505 | 72 | 138 | 2.0 | 7.0 | 0.00 | 0.00 | 0.00 | 52 | 1006.3 |
| 20260830214023 | 72 | 70 | 3.0 | 6.0 | 0.00 | 0.00 | 0.00 | 50 | 1006.4 |
| 20260830213518 | 72 | 218 | 2.0 | 8.0 | 0.00 | 0.00 | 0.00 | 49 | 1006.5 |
| 20260830213102 | 73 | 74 | 4.0 | 8.0 | 0.00 | 0.00 | 0.00 | 49 | 1006.7 |
| 20260830212600 | 72 | 70 | 2.0 | 8.0 | 0.00 | 0.00 | 0.00 | 52 | 1006.7 |
| 20260830212107 | 72 | 355 | 3.0 | 7.0 | 0.00 | 0.00 | 0.00 | 51 | 1006.8 |
| 20260830211538 | 72 | 62 | 1.0 | 7.0 | 0.00 | 0.00 | 0.00 | 51 | 1006.9 |
| 20260830211047 | 71 | 279 | 2.0 | 4.0 | 0.00 | 0.00 | 0.00 | 52 | 1006.9 |
| 20260830210551 | 70 | 97 | 1.0 | 7.0 | 0.00 | 0.00 | 0.00 | 50 | 1006.9 |
| 20260830210024 | 71 | 89 | 3.0 | 7.0 | 0.00 | 0.00 | 0.00 | 50 | 1007.1 |
| 20260830205532 | 72 | 51 | 3.0 | 7.0 | 0.00 | 0.00 | 0.00 | 52 | 1007.0 |
| 20260830205040 | 71 | 19 | 4.0 | 8.0 | 0.00 | 0.00 | 0.00 | 53 | 1007.1 |
| 20260830204506 | 70 | 355 | 2.0 | 6.0 | 0.00 | 0.00 | 0.00 | 53 | 1007.1 |
| 20260830204010 | 70 | 109 | 3.0 | 6.0 | 0.00 | 0.00 | 0.00 | 54 | 1007.1 |
| 20260830203516 | 68 | 311 | 1.0 | 10.0 | 0.00 | 0.00 | 0.00 | 54 | 1007.3 |
| 20260830203050 | 70 | 9 | 3.0 | 10.0 | 0.00 | 0.00 | 0.00 | 52 | 1007.3 |
| 20260830202558 | 70 | 42 | 1.0 | 8.0 | 0.00 | 0.00 | 0.00 | 54 | 1007.3 |
| 20260830202004 | 70 | 317 | 3.0 | 9.0 | 0.00 | 0.00 | 0.00 | 52 | 1007.3 |
| 20260830201605 | 70 | 11 | 5.0 | 9.0 | 0.00 | 0.00 | 0.00 | 54 | 1007.5 |
| 20260830201048 | 70 | 26 | 3.0 | 9.0 | 0.00 | 0.00 | 0.00 | 53 | 1007.5 |
| 20260830200552 | 70 | 61 | 4.0 | 9.0 | 0.00 | 0.00 | 0.00 | 53 | 1007.6 |
| 20260830200028 | 69 | 186 | 1.0 | 8.0 | 0.00 | 0.00 | 0.00 | 54 | 1007.6 |
| 20260830195537 | 69 | 5 | 3.0 | 8.0 | 0.00 | 0.00 | 0.00 | 54 | 1007.7 |
| 20260830195045 | 69 | 5 | 3.0 | 8.0 | 0.00 | 0.00 | 0.00 | 55 | 1007.6 |
| 20260830194515 | 69 | 251 | 3.0 | 8.0 | 0.00 | 0.00 | 0.00 | 57 | 1007.6 |
| 20260830194025 | 68 | 42 | 1.0 | 8.0 | 0.00 | 0.00 | 0.00 | 56 | 1007.7 |
| 20260830193531 | 69 | 37 | 3.0 | 9.0 | 0.00 | 0.00 | 0.00 | 56 | 1007.7 |
| 20260830193002 | 68 | 26 | 2.0 | 5.0 | 0.00 | 0.00 | 0.00 | 56 | 1007.9 |
| 20260830192508 | 67 | 19 | 1.0 | 8.0 | 0.00 | 0.00 | 0.00 | 56 | 1007.9 |
| 20260830192014 | 68 | 333 | 1.0 | 8.0 | 0.00 | 0.00 | 0.00 | 57 | 1008.0 |
| 20260830191551 | 68 | 287 | 4.0 | 8.0 | 0.00 | 0.00 | 0.00 | 58 | 1008.1 |
| 20260830191058 | 67 | 63 | 2.0 | 6.0 | 0.00 | 0.00 | 0.00 | 56 | 1008.1 |
| 20260830190502 | 68 | 55 | 1.0 | 7.0 | 0.00 | 0.00 | 0.00 | 57 | 1008.1 |
| 20260830190039 | 69 | 28 | 3.0 | 8.0 | 0.00 | 0.00 | 0.00 | 55 | 1008.3 |
| 20260830185544 | 67 | 46 | 1.0 | 4.0 | 0.00 | 0.00 | 0.00 | 59 | 1008.3 |
| 20260830185053 | 66 | 124 | 2.0 | 6.0 | 0.00 | 0.00 | 0.00 | 60 | 1008.3 |
| 20260830184532 | 65 | 97 | 2.0 | 6.0 | 0.00 | 0.00 | 0.00 | 60 | 1008.4 |
| 20260830184039 | 65 | 50 | 2.0 | 8.0 | 0.00 | 0.00 | 0.00 | 58 | 1008.5 |
| 20260830183545 | 67 | 55 | 5.0 | 8.0 | 0.00 | 0.00 | 0.00 | 58 | 1008.5 |
| 20260830183010 | 66 | 313 | 3.0 | 6.0 | 0.00 | 0.00 | 0.00 | 59 | 1008.4 |
| 20260830182524 | 65 | 39 | 2.0 | 9.0 | 0.00 | 0.00 | 0.00 | 60 | 1008.4 |
| 20260830182032 | 66 | 53 | 3.0 | 9.0 | 0.00 | 0.00 | 0.00 | 59 | 1008.5 |
| 20260830181510 | 65 | 32 | 3.0 | 10.0 | 0.00 | 0.00 | 0.00 | 60 | 1008.4 |
| 20260830181023 | 66 | 355 | 3.0 | 10.0 | 0.00 | 0.00 | 0.00 | 59 | 1008.5 |
| 20260830180531 | 67 | 17 | 3.0 | 8.0 | 0.00 | 0.00 | 0.00 | 59 | 1008.5 |
| 20260830180100 | 67 | 100 | 2.0 | 6.0 | 0.00 | 0.00 | 0.00 | 58 | 1008.4 |
| 20260830175600 | 65 | 295 | 1.0 | 5.0 | 0.00 | 0.00 | 0.00 | 61 | 1008.4 |
| 20260830175108 | 64 | 51 | 0.0 | 10.0 | 0.00 | 0.00 | 0.00 | 62 | 1008.5 |
| 20260830174539 | 65 | 32 | 3.0 | 10.0 | 0.00 | 0.00 | 0.00 | 63 | 1008.4 |
| 20260830174045 | 65 | 46 | 2.0 | 6.0 | 0.00 | 0.00 | 0.00 | 62 | 1008.4 |
| 20260830173549 | 64 | 78 | 1.0 | 6.0 | 0.00 | 0.00 | 0.00 | 64 | 1008.4 |
| 20260830173025 | 63 | 76 | 2.0 | 6.0 | 0.00 | 0.00 | 0.00 | 66 | 1008.4 |
| 20260830172532 | 64 | 309 | 2.0 | 6.0 | 0.00 | 0.00 | 0.00 | 66 | 1008.4 |
| 20260830172039 | 64 | 19 | 3.0 | 7.0 | 0.00 | 0.00 | 0.00 | 65 | 1008.4 |
| 20260830171502 | 63 | 69 | 3.0 | 5.0 | 0.00 | 0.00 | 0.00 | 65 | 1008.5 |
| 20260830171018 | 63 | 40 | 2.0 | 5.0 | 0.00 | 0.00 | 0.00 | 68 | 1008.5 |
| 20260830170524 | 63 | 304 | 2.0 | 6.0 | 0.00 | 0.00 | 0.00 | 70 | 1008.6 |
| 20260830170050 | 62 | 30 | 4.0 | 6.0 | 0.00 | 0.00 | 0.00 | 71 | 1008.6 |
| 20260830165557 | 62 | 76 | 1.0 | 7.0 | 0.00 | 0.00 | 0.00 | 72 | 1008.5 |
| 20260830165103 | 61 | 287 | 4.0 | 6.0 | 0.00 | 0.00 | 0.00 | 73 | 1008.5 |
| 20260830164538 | 61 | 19 | 2.0 | 3.0 | 0.00 | 0.00 | 0.00 | 74 | 1008.5 |
| 20260830164042 | 61 | 55 | 1.0 | 3.0 | 0.00 | 0.00 | 0.00 | 75 | 1008.4 |
| 20260830163548 | 60 | 158 | 0.0 | 3.0 | 0.00 | 0.00 | 0.00 | 75 | 1008.4 |
| 20260830163027 | 60 | 38 | 2.0 | 3.0 | 0.00 | 0.00 | 0.00 | 74 | 1008.5 |
| 20260830162533 | 60 | 12 | 1.0 | 3.0 | 0.00 | 0.00 | 0.00 | 74 | 1008.6 |
| 20260830162033 | 59 | 10 | 0.0 | 3.0 | 0.00 | 0.00 | 0.00 | 75 | 1008.6 |
| 20260830161604 | 59 | 19 | 1.0 | 4.0 | 0.00 | 0.00 | 0.00 | 76 | 1008.7 |
| 20260830161006 | 59 | 38 | 1.0 | 4.0 | 0.00 | 0.00 | 0.00 | 77 | 1008.7 |
| 20260830160524 | 59 | 45 | 2.0 | 4.0 | 0.00 | 0.00 | 0.00 | 77 | 1008.8 |
| 20260830160050 | 58 | 51 | 0.0 | 2.0 | 0.00 | 0.00 | 0.00 | 77 | 1008.8 |
| 20260830155556 | 58 | 317 | 0.0 | 0.0 | 0.00 | 0.00 | 0.00 | 78 | 1008.8 |
| 20260830155103 | 57 | 317 | 0.0 | 0.0 | 0.00 | 0.00 | 0.00 | 79 | 1008.7 |
| 20260830154536 | 57 | 317 | 0.0 | 0.0 | 0.00 | 0.00 | 0.00 | 80 | 1008.7 |
| 20260830154044 | 56 | 317 | 0.0 | 0.0 | 0.00 | 0.00 | 0.00 | 81 | 1008.7 |
| 20260830153539 | 56 | 283 | 0.0 | 0.0 | 0.00 | 0.00 | 0.00 | 82 | 1008.7 |
| 20260830153032 | 55 | 283 | 0.0 | 0.0 | 0.00 | 0.00 | 0.00 | 83 | 1008.7 |
| 20260830152525 | 54 | 283 | 0.0 | 0.0 | 0.00 | 0.00 | 0.00 | 85 | 1008.7 |
| 20260830152012 | 53 | 283 | 0.0 | 0.0 | 0.00 | 0.00 | 0.00 | 86 | 1008.8 |
| 20260830151555 | 53 | 283 | 0.0 | 0.0 | 0.00 | 0.00 | 0.00 | 86 | 1008.9 |
| 20260830151056 | 52 | 283 | 0.0 | 0.0 | 0.00 | 0.00 | 0.00 | 86 | 1008.9 |
| 20260830150603 | 52 | 283 | 0.0 | 0.0 | 0.00 | 0.00 | 0.00 | 87 | 1008.9 |
| 20260830150030 | 51 | 283 | 0.0 | 0.0 | 0.00 | 0.00 | 0.00 | 87 | 1009.0 |
| 20260830145540 | 51 | 283 | 0.0 | 0.0 | 0.00 | 0.00 | 0.00 | 87 | 1008.9 |
| 20260830145043 | 51 | 283 | 0.0 | 0.0 | 0.00 | 0.00 | 0.00 | 88 | 1009.0 |
| 20260830144504 | 50 | 283 | 0.0 | 0.0 | 0.00 | 0.00 | 0.00 | 87 | 1009.0 |
| 20260830144019 | 50 | 283 | 0.0 | 0.0 | 0.00 | 0.00 | 0.00 | 87 | 1009.0 |
| 20260830143527 | 50 | 283 | 0.0 | 0.0 | 0.00 | 0.00 | 0.00 | 87 | 1008.9 |
| 20260830143102 | 50 | 249 | 0.0 | 0.0 | 0.00 | 0.00 | 0.00 | 87 | 1008.8 |
| 20260830142556 | 50 | 249 | 0.0 | 0.0 | 0.00 | 0.00 | 0.00 | 87 | 1008.7 |
| 20260830142004 | 50 | 249 | 0.0 | 0.0 | 0.00 | 0.00 | 0.00 | 87 | 1008.7 |
| 20260830141542 | 50 | 249 | 0.0 | 0.0 | 0.00 | 0.00 | 0.00 | 87 | 1008.7 |
| 20260830141045 | 50 | 249 | 0.0 | 0.0 | 0.00 | 0.00 | 0.00 | 87 | 1008.7 |
| 20260830140554 | 50 | 249 | 0.0 | 0.0 | 0.00 | 0.00 | 0.00 | 87 | 1008.7 |
| 20260830140011 | 50 | 249 | 0.0 | 0.0 | 0.00 | 0.00 | 0.00 | 87 | 1008.7 |
| 20260830135518 | 50 | 249 | 0.0 | 0.0 | 0.00 | 0.00 | 0.00 | 87 | 1008.7 |
| 20260830135016 | 50 | 249 | 0.0 | 0.0 | 0.00 | 0.00 | 0.00 | 87 | 1008.8 |
| 20260830134554 | 50 | 249 | 0.0 | 1.0 | 0.00 | 0.00 | 0.00 | 86 | 1008.8 |
| 20260830134057 | 50 | 249 | 0.0 | 1.0 | 0.00 | 0.00 | 0.00 | 86 | 1008.6 |
| 20260830133556 | 50 | 249 | 0.0 | 1.0 | 0.00 | 0.00 | 0.00 | 86 | 1008.8 |
| 20260830133039 | 50 | 249 | 0.0 | 1.0 | 0.00 | 0.00 | 0.00 | 86 | 1008.6 |
| 20260830132538 | 50 | 249 | 0.0 | 1.0 | 0.00 | 0.00 | 0.00 | 86 | 1008.6 |
| 20260830132040 | 50 | 249 | 0.0 | 1.0 | 0.00 | 0.00 | 0.00 | 86 | 1008.6 |
| 20260830131507 | 50 | 249 | 0.0 | 0.0 | 0.00 | 0.00 | 0.00 | 85 | 1008.6 |
| 20260830131026 | 50 | 249 | 0.0 | 1.0 | 0.00 | 0.00 | 0.00 | 85 | 1008.6 |
| 20260830130533 | 50 | 249 | 0.0 | 1.0 | 0.00 | 0.00 | 0.00 | 86 | 1008.6 |
| 20260830130056 | 50 | 249 | 0.0 | 2.0 | 0.00 | 0.06 | 0.00 | 86 | 1008.6 |
| 20260830125502 | 50 | 249 | 0.0 | 2.0 | 0.00 | 0.06 | 0.00 | 86 | 1008.5 |
| 20260830125007 | 51 | 249 | 0.0 | 1.0 | 0.00 | 0.06 | 0.00 | 85 | 1008.5 |
| 20260830124555 | 51 | 249 | 0.0 | 0.0 | 0.00 | 0.06 | 0.00 | 86 | 1008.5 |
| 20260830124056 | 51 | 249 | 0.0 | 2.0 | 0.00 | 0.06 | 0.00 | 86 | 1008.4 |
| 20260830123604 | 51 | 249 | 0.0 | 2.0 | 0.00 | 0.06 | 0.00 | 86 | 1008.4 |
| 20260830123039 | 51 | 249 | 0.0 | 1.0 | 0.00 | 0.06 | 0.00 | 86 | 1008.4 |
| 20260830122543 | 51 | 249 | 0.0 | 2.0 | 0.00 | 0.06 | 0.00 | 86 | 1008.3 |
| 20260830122048 | 51 | 249 | 0.0 | 2.0 | 0.00 | 0.06 | 0.00 | 86 | 1008.2 |
| 20260830121527 | 51 | 249 | 1.0 | 2.0 | 0.00 | 0.06 | 0.00 | 86 | 1008.2 |
| 20260830121019 | 51 | 249 | 1.0 | 2.0 | 0.00 | 0.06 | 0.00 | 86 | 1008.2 |
| 20260830120536 | 51 | 249 | 1.0 | 2.0 | 0.00 | 0.06 | 0.00 | 86 | 1008.2 |
| 20260830120004 | 51 | 249 | 1.0 | 2.0 | 0.00 | 0.06 | 0.00 | 86 | 1008.2 |
| 20260830115507 | 51 | 249 | 1.0 | 2.0 | 0.00 | 0.06 | 0.00 | 86 | 1008.2 |
| 20260830115012 | 51 | 249 | 1.0 | 2.0 | 0.00 | 0.06 | 0.00 | 85 | 1008.3 |
| 20260830114557 | 52 | 249 | 1.0 | 2.0 | 0.00 | 0.06 | 0.00 | 85 | 1008.3 |
| 20260830114057 | 52 | 249 | 0.0 | 2.0 | 0.00 | 0.06 | 0.00 | 85 | 1008.2 |
| 20260830113555 | 52 | 249 | 0.0 | 2.0 | 0.00 | 0.06 | 0.00 | 85 | 1008.3 |
| 20260830113032 | 52 | 249 | 1.0 | 2.0 | 0.00 | 0.06 | 0.00 | 85 | 1008.3 |
| 20260830112537 | 52 | 249 | 1.0 | 2.0 | 0.00 | 0.06 | 0.00 | 85 | 1008.2 |
| 20260830112039 | 52 | 249 | 0.0 | 2.0 | 0.00 | 0.06 | 0.00 | 85 | 1008.3 |
| 20260830111505 | 52 | 249 | 1.0 | 2.0 | 0.00 | 0.06 | 0.00 | 85 | 1008.2 |
| 20260830111021 | 52 | 249 | 1.0 | 2.0 | 0.00 | 0.06 | 0.00 | 85 | 1008.2 |
| 20260830110527 | 52 | 249 | 1.0 | 3.0 | 0.00 | 0.06 | 0.00 | 85 | 1008.1 |
| 20260830110048 | 52 | 249 | 1.0 | 3.0 | 0.00 | 0.06 | 0.00 | 85 | 1008.3 |
| 20260830105555 | 52 | 249 | 1.0 | 3.0 | 0.00 | 0.06 | 0.00 | 85 | 1008.3 |
| 20260830105101 | 52 | 249 | 1.0 | 3.0 | 0.00 | 0.06 | 0.00 | 85 | 1008.2 |
| 20260830104520 | 52 | 249 | 1.0 | 3.0 | 0.00 | 0.06 | 0.00 | 85 | 1008.2 |
| 20260830104027 | 52 | 249 | 1.0 | 3.0 | 0.00 | 0.06 | 0.00 | 85 | 1008.3 |
| 20260830103533 | 52 | 249 | 0.0 | 4.0 | 0.00 | 0.06 | 0.00 | 85 | 1008.2 |
| 20260830103102 | 52 | 249 | 1.0 | 4.0 | 0.00 | 0.06 | 0.00 | 85 | 1008.2 |
| 20260830102504 | 52 | 225 | 2.0 | 4.0 | 0.00 | 0.06 | 0.00 | 85 | 1008.1 |
| 20260830102014 | 52 | 230 | 2.0 | 5.0 | 0.00 | 0.06 | 0.00 | 85 | 1008.1 |
| 20260830101551 | 52 | 229 | 2.0 | 5.0 | 0.00 | 0.06 | 0.00 | 84 | 1008.2 |
| 20260830101057 | 52 | 236 | 2.0 | 4.0 | 0.00 | 0.06 | 0.00 | 84 | 1008.2 |
| 20260830100604 | 52 | 241 | 1.0 | 4.0 | 0.00 | 0.06 | 0.00 | 84 | 1008.1 |
| 20260830100039 | 52 | 237 | 1.0 | 3.0 | 0.00 | 0.06 | 0.00 | 84 | 1008.2 |
| 20260830095539 | 52 | 279 | 1.0 | 3.0 | 0.00 | 0.06 | 0.00 | 84 | 1008.2 |
| 20260830095049 | 52 | 245 | 1.0 | 3.0 | 0.00 | 0.06 | 0.00 | 84 | 1008.3 |
| 20260830094552 | 52 | 245 | 1.0 | 3.0 | 0.00 | 0.06 | 0.00 | 83 | 1008.2 |
| 20260830094031 | 52 | 244 | 1.0 | 3.0 | 0.00 | 0.06 | 0.00 | 83 | 1008.3 |
| 20260830093532 | 52 | 244 | 2.0 | 3.0 | 0.00 | 0.06 | 0.00 | 84 | 1008.1 |
| 20260830093047 | 53 | 257 | 1.0 | 4.0 | 0.00 | 0.06 | 0.00 | 83 | 1008.1 |
| 20260830092552 | 52 | 265 | 0.0 | 5.0 | 0.00 | 0.06 | 0.00 | 83 | 1008.2 |
| 20260830092053 | 53 | 260 | 1.0 | 5.0 | 0.00 | 0.06 | 0.00 | 83 | 1008.1 |
| 20260830091519 | 53 | 235 | 2.0 | 4.0 | 0.00 | 0.06 | 0.00 | 83 | 1008.1 |
| 20260830091036 | 53 | 238 | 1.0 | 4.0 | 0.00 | 0.06 | 0.00 | 83 | 1008.2 |
| 20260830090541 | 53 | 233 | 2.0 | 3.0 | 0.00 | 0.06 | 0.00 | 82 | 1008.2 |
| 20260830090019 | 53 | 233 | 0.0 | 3.0 | 0.00 | 0.06 | 0.00 | 82 | 1008.3 |
| 20260830085530 | 53 | 287 | 1.0 | 3.0 | 0.00 | 0.06 | 0.00 | 82 | 1008.2 |
| 20260830085033 | 53 | 288 | 0.0 | 3.0 | 0.00 | 0.06 | 0.00 | 82 | 1008.2 |
| 20260830084549 | 53 | 288 | 1.0 | 3.0 | 0.00 | 0.06 | 0.00 | 82 | 1008.2 |
| 20260830084057 | 53 | 286 | 1.0 | 3.0 | 0.00 | 0.06 | 0.00 | 82 | 1008.3 |
| 20260830083505 | 53 | 214 | 1.0 | 4.0 | 0.00 | 0.06 | 0.00 | 82 | 1008.3 |
| 20260830083036 | 53 | 213 | 1.0 | 4.0 | 0.00 | 0.06 | 0.00 | 82 | 1008.3 |
| 20260830082545 | 53 | 252 | 1.0 | 3.0 | 0.00 | 0.06 | 0.00 | 82 | 1008.4 |
| 20260830082051 | 53 | 242 | 1.0 | 3.0 | 0.00 | 0.06 | 0.00 | 82 | 1008.4 |
| 20260830081525 | 53 | 240 | 1.0 | 3.0 | 0.00 | 0.06 | 0.00 | 82 | 1008.3 |
| 20260830081015 | 53 | 200 | 2.0 | 3.0 | 0.00 | 0.06 | 0.00 | 82 | 1008.3 |
| 20260830080529 | 53 | 213 | 2.0 | 5.0 | 0.00 | 0.06 | 0.00 | 81 | 1008.3 |
| 20260830080100 | 53 | 275 | 2.0 | 5.0 | 0.00 | 0.06 | 0.00 | 81 | 1008.4 |
| 20260830075557 | 53 | 281 | 2.0 | 3.0 | 0.00 | 0.06 | 0.00 | 81 | 1008.4 |
| 20260830075004 | 53 | 282 | 1.0 | 3.0 | 0.00 | 0.06 | 0.00 | 80 | 1008.4 |
| 20260830074539 | 53 | 221 | 1.0 | 3.0 | 0.00 | 0.06 | 0.00 | 80 | 1008.4 |
| 20260830074041 | 53 | 221 | 1.0 | 3.0 | 0.00 | 0.06 | 0.00 | 80 | 1008.3 |
| 20260830073547 | 53 | 315 | 0.0 | 0.0 | 0.00 | 0.06 | 0.00 | 80 | 1008.4 |
| 20260830073015 | 53 | 315 | 0.0 | 0.0 | 0.00 | 0.06 | 0.00 | 79 | 1008.3 |
| 20260830072529 | 53 | 315 | 0.0 | 0.0 | 0.00 | 0.06 | 0.00 | 79 | 1008.4 |
| 20260830072025 | 53 | 315 | 0.0 | 0.0 | 0.00 | 0.06 | 0.00 | 79 | 1008.3 |
| 20260830071553 | 53 | 315 | 0.0 | 0.0 | 0.00 | 0.06 | 0.00 | 79 | 1008.3 |
| 20260830071102 | 53 | 315 | 0.0 | 0.0 | 0.00 | 0.06 | 0.00 | 78 | 1008.2 |
| 20260830070602 | 53 | 315 | 0.0 | 0.0 | 0.00 | 0.06 | 0.00 | 77 | 1008.3 |
| 20260830070034 | 53 | 315 | 0.0 | 0.0 | 0.00 | 0.06 | 0.06 | 77 | 1008.3 |
| 20260830065534 | 54 | 315 | 0.0 | 0.0 | 0.00 | 0.06 | 0.06 | 77 | 1008.3 |
| 20260830065039 | 54 | 315 | 0.0 | 0.0 | 0.00 | 0.06 | 0.06 | 77 | 1008.2 |
| 20260830064601 | 54 | 315 | 0.0 | 0.0 | 0.00 | 0.06 | 0.06 | 76 | 1008.3 |
| 20260830064007 | 54 | 315 | 0.0 | 0.0 | 0.00 | 0.06 | 0.06 | 76 | 1008.2 |
| 20260830063519 | 54 | 315 | 0.0 | 0.0 | 0.00 | 0.06 | 0.06 | 76 | 1008.3 |
| 20260830063049 | 54 | 315 | 0.0 | 0.0 | 0.00 | 0.06 | 0.06 | 76 | 1008.2 |
| 20260830062558 | 54 | 18 | 0.0 | 0.0 | 0.00 | 0.06 | 0.06 | 75 | 1008.2 |
| 20260830062001 | 54 | 18 | 0.0 | 0.0 | 0.00 | 0.06 | 0.06 | 75 | 1008.1 |
| 20260830061534 | 54 | 18 | 0.0 | 0.0 | 0.00 | 0.06 | 0.06 | 75 | 1008.1 |
| 20260830061039 | 55 | 18 | 0.0 | 0.0 | 0.00 | 0.06 | 0.06 | 75 | 1008.1 |
| 20260830060547 | 55 | 18 | 0.0 | 0.0 | 0.00 | 0.06 | 0.06 | 75 | 1008.1 |
| 20260830060014 | 55 | 18 | 0.0 | 0.0 | 0.00 | 0.06 | 0.06 | 75 | 1008.1 |
| 20260830055521 | 55 | 18 | 0.0 | 0.0 | 0.00 | 0.06 | 0.06 | 74 | 1008.2 |
| 20260830055029 | 55 | 18 | 0.0 | 0.0 | 0.00 | 0.06 | 0.06 | 74 | 1008.3 |
| 20260830054559 | 55 | 18 | 0.0 | 0.0 | 0.00 | 0.06 | 0.06 | 73 | 1008.2 |
| 20260830054002 | 56 | 18 | 0.0 | 2.0 | 0.00 | 0.06 | 0.06 | 72 | 1008.2 |
| 20260830053509 | 56 | 18 | 0.0 | 2.0 | 0.00 | 0.06 | 0.06 | 72 | 1008.1 |
| 20260830053046 | 56 | 18 | 1.0 | 2.0 | 0.00 | 0.06 | 0.06 | 72 | 1008.2 |
| 20260830052553 | 56 | 18 | 0.0 | 2.0 | 0.00 | 0.06 | 0.06 | 71 | 1008.1 |
| 20260830052057 | 56 | 18 | 1.0 | 2.0 | 0.00 | 0.06 | 0.06 | 70 | 1008.1 |
| 20260830051535 | 56 | 18 | 0.0 | 2.0 | 0.00 | 0.06 | 0.06 | 70 | 1008.0 |
| 20260830051044 | 57 | 18 | 1.0 | 2.0 | 0.00 | 0.06 | 0.06 | 69 | 1008.0 |
| 20260830050545 | 57 | 18 | 1.0 | 2.0 | 0.00 | 0.06 | 0.06 | 69 | 1008.0 |
| 20260830050014 | 57 | 18 | 1.0 | 2.0 | 0.00 | 0.06 | 0.06 | 69 | 1008.0 |
| 20260830045528 | 57 | 18 | 1.0 | 2.0 | 0.00 | 0.06 | 0.06 | 69 | 1007.9 |
| 20260830045028 | 58 | 18 | 1.0 | 3.0 | 0.00 | 0.06 | 0.06 | 68 | 1008.0 |
| 20260830044536 | 58 | 18 | 1.0 | 3.0 | 0.00 | 0.06 | 0.06 | 68 | 1008.0 |
| 20260830044033 | 58 | 18 | 1.0 | 2.0 | 0.00 | 0.06 | 0.06 | 67 | 1007.9 |
| 20260830043543 | 58 | 18 | 1.0 | 2.0 | 0.00 | 0.06 | 0.06 | 67 | 1007.9 |
| 20260830043021 | 58 | 18 | 1.0 | 2.0 | 0.00 | 0.06 | 0.06 | 67 | 1007.9 |
| 20260830042533 | 59 | 18 | 0.0 | 2.0 | 0.00 | 0.06 | 0.06 | 66 | 1007.8 |
| 20260830042039 | 59 | 18 | 0.0 | 2.0 | 0.00 | 0.06 | 0.06 | 65 | 1007.8 |
| 20260830041556 | 59 | 19 | 0.0 | 2.0 | 0.00 | 0.06 | 0.06 | 65 | 1007.7 |
| 20260830041059 | 60 | 19 | 0.0 | 3.0 | 0.00 | 0.06 | 0.06 | 64 | 1007.7 |
| 20260830040509 | 60 | 19 | 0.0 | 3.0 | 0.00 | 0.06 | 0.06 | 64 | 1007.6 |
| 20260830040057 | 60 | 18 | 1.0 | 3.0 | 0.00 | 0.06 | 0.06 | 63 | 1007.6 |
| 20260830035552 | 60 | 53 | 0.0 | 3.0 | 0.00 | 0.06 | 0.06 | 63 | 1007.6 |
| 20260830035057 | 61 | 20 | 1.0 | 5.0 | 0.00 | 0.06 | 0.06 | 63 | 1007.5 |
| 20260830034531 | 61 | 20 | 1.0 | 5.0 | 0.00 | 0.06 | 0.06 | 62 | 1007.6 |
| 20260830034037 | 61 | 41 | 0.0 | 4.0 | 0.00 | 0.06 | 0.06 | 62 | 1007.4 |
| 20260830033544 | 62 | 40 | 2.0 | 4.0 | 0.00 | 0.06 | 0.06 | 62 | 1007.3 |
| 20260830033003 | 62 | 342 | 1.0 | 3.0 | 0.00 | 0.06 | 0.06 | 62 | 1007.3 |
| 20260830032510 | 62 | 338 | 1.0 | 3.0 | 0.00 | 0.06 | 0.06 | 61 | 1007.3 |
| 20260830032026 | 63 | 338 | 1.0 | 4.0 | 0.00 | 0.06 | 0.06 | 60 | 1007.3 |
| 20260830031556 | 63 | 338 | 1.0 | 4.0 | 0.00 | 0.06 | 0.06 | 61 | 1007.2 |
| 20260830031002 | 63 | 338 | 0.0 | 5.0 | 0.00 | 0.06 | 0.06 | 60 | 1007.1 |
| 20260830030507 | 64 | 338 | 2.0 | 5.0 | 0.00 | 0.06 | 0.06 | 59 | 1007.0 |
| 20260830030041 | 64 | 54 | 1.0 | 9.0 | 0.00 | 0.06 | 0.06 | 59 | 1007.1 |
| 20260830025549 | 64 | 273 | 1.0 | 9.0 | 0.00 | 0.06 | 0.06 | 59 | 1006.9 |
| 20260830025058 | 64 | 360 | 1.0 | 10.0 | 0.00 | 0.06 | 0.06 | 58 | 1007.0 |
| 20260830024537 | 65 | 273 | 1.0 | 10.0 | 0.00 | 0.06 | 0.06 | 58 | 1007.0 |
| 20260830024044 | 65 | 61 | 2.0 | 9.0 | 0.00 | 0.06 | 0.06 | 58 | 1006.9 |
| 20260830023557 | 65 | 360 | 3.0 | 9.0 | 0.00 | 0.06 | 0.06 | 57 | 1006.9 |
| 20260830023030 | 66 | 40 | 1.0 | 6.0 | 0.00 | 0.06 | 0.06 | 56 | 1006.8 |
| 20260830022549 | 66 | 67 | 3.0 | 10.0 | 0.00 | 0.06 | 0.06 | 55 | 1006.8 |
| 20260830022055 | 66 | 5 | 4.0 | 10.0 | 0.00 | 0.06 | 0.06 | 54 | 1006.7 |
| 20260830021534 | 67 | 15 | 3.0 | 14.0 | 0.00 | 0.06 | 0.06 | 52 | 1006.8 |
| 20260830021036 | 67 | 15 | 5.0 | 14.0 | 0.00 | 0.06 | 0.06 | 52 | 1006.7 |
| 20260830020545 | 67 | 74 | 4.0 | 14.0 | 0.00 | 0.06 | 0.06 | 50 | 1006.8 |
| 20260830020019 | 68 | 74 | 5.0 | 11.0 | 0.00 | 0.06 | 0.06 | 50 | 1006.7 |
| 20260830015530 | 68 | 56 | 5.0 | 10.0 | 0.00 | 0.06 | 0.06 | 49 | 1006.6 |
| 20260830015039 | 69 | 313 | 2.0 | 10.0 | 0.00 | 0.06 | 0.06 | 48 | 1006.6 |
| 20260830014507 | 69 | 54 | 2.0 | 9.0 | 0.00 | 0.06 | 0.06 | 47 | 1006.6 |
| 20260830014021 | 70 | 28 | 2.0 | 6.0 | 0.00 | 0.06 | 0.06 | 46 | 1006.5 |
| 20260830013530 | 70 | 311 | 1.0 | 10.0 | 0.00 | 0.06 | 0.06 | 43 | 1006.5 |
| 20260830013054 | 70 | 321 | 3.0 | 10.0 | 0.00 | 0.06 | 0.06 | 43 | 1006.5 |
| 20260830012604 | 70 | 34 | 2.0 | 9.0 | 0.00 | 0.06 | 0.06 | 44 | 1006.5 |
| 20260830012006 | 71 | 36 | 4.0 | 14.0 | 0.00 | 0.06 | 0.06 | 44 | 1006.5 |
| 20260830011532 | 71 | 19 | 3.0 | 14.0 | 0.00 | 0.06 | 0.06 | 44 | 1006.4 |
| 20260830011039 | 71 | 235 | 3.0 | 11.0 | 0.00 | 0.06 | 0.06 | 45 | 1006.4 |
| 20260830010551 | 71 | 17 | 4.0 | 12.0 | 0.00 | 0.06 | 0.06 | 45 | 1006.4 |